1507856400.36,36442,11.56,73864.3,-3.45,-20.73,-17.83,0,*5E
1507856401.57,36443,11.56,73888.8,-3.45,-25.09,-25.61,0,*5A
1507856402.76,36444,11.56,73860.5,-3.45,-24.93,-26.23,0,*5A
1507856404.01,36445,11.56,73878.0,-3.43,-20.05,-17.21,0,*56
1507856405.24,36446,11.56,73868.3,-3.45,-19.41,-16.59,0,*57
1507856406.47,36447,11.56,73882.5,-3.45,-21.03,-22.11,0,*50
1507856407.72,36448,11.56,73900.3,-3.39,-20.35,-17.59,0,*5A
1507856408.95,36449,11.56,73878.8,-3.43,-23.09,-22.41,0,*55
1507856410.21,36450,11.56,73854.5,-3.43,-25.55,-26.49,0,*5E
1507856411.46,36451,11.56,73850.0,-3.43,-24.67,-23.89,0,*56
1507856412.69,36452,11.56,73870.8,-3.39,-23.29,-19.99,0,*5D
1507856413.92,36453,11.56,73868.8,-3.39,-24.97,-23.49,0,*5A
1507856415.21,36454,11.56,73874.0,-3.37,-22.21,-18.35,0,*5B
1507856416.47,36455,11.56,73864.3,-3.37,-22.57,-20.15,0,*52
1507856417.71,36456,11.56,73862.3,-3.39,-23.43,-23.19,0,*54
1507856418.93,36457,11.56,73856.5,-3.39,-22.41,-20.15,0,*59
1507856420.13,36458,11.56,73844.8,-3.39,-22.87,-21.73,0,*5D
1507856421.34,36459,11.56,73852.8,-3.39,-24.61,-25.13,0,*50
1507856422.62,36460,11.56,73852.3,-3.37,-23.03,-24.15,0,*50
1507856423.88,36461,11.56,73850.5,-3.43,-22.41,-18.35,0,*58
1507856425.13,36462,11.56,73872.0,-3.43,-21.67,-18.21,0,*59
1507856426.42,36463,11.56,73874.0,-3.43,-26.33,-27.83,0,*5A
1507856427.65,36464,11.56,73884.8,-3.45,-22.47,-19.37,0,*5E
1507856428.88,36465,11.56,73916.8,-3.43,-20.05,-17.49,0,*5A
1507856430.13,36466,11.56,73904.0,-3.43,-25.19,-25.97,0,*53
1507856431.39,36467,11.56,73834.3,-3.43,-24.51,-25.03,0,*52
1507856432.65,36468,11.56,73854.8,-3.43,-24.97,-26.17,0,*51
1507856433.94,36469,11.56,73826.5,-3.37,-25.75,-26.81,0,*51
1507856435.22,36470,11.56,73816.8,-3.37,-27.23,-28.63,0,*5A
1507856436.52,36471,11.56,73860.0,-3.37,-26.93,-28.63,0,*51
1507856437.75,36472,11.56,73862.0,-3.37,-21.93,-18.65,0,*50
1507856438.96,36473,11.56,73868.3,-3.39,-21.47,-17.73,0,*5E
1507856440.25,36474,11.56,73868.5,-3.37,-24.15,-22.17,0,*51
1507856441.48,36475,11.56,73902.0,-3.39,-21.57,-18.45,0,*53
1507856442.7,36476,11.56,73866.3,-3.39,-22.41,-19.85,0,*59
1507856443.94,36477,11.56,73910.5,-3.39,-25.49,-26.81,0,*5F
1507856445.19,36478,11.56,73900.3,-3.39,-25.29,-26.93,0,*55
1507856446.45,36479,11.56,73886.8,-3.39,-24.67,-24.83,0,*5C
1507856447.69,36480,11.56,73872.3,-3.35,-23.59,-24.25,0,*50
1507856448.93,36481,11.56,73856.3,-3.35,-22.47,-19.95,0,*5A
1507856450.18,36482,11.56,73886.0,-3.35,-27.39,-29.13,0,*58
1507856451.42,36483,11.56,73890.8,-3.35,-23.39,-21.03,0,*54
1507856452.65,36484,11.56,73882.0,-3.35,-22.31,-19.03,0,*51
1507856453.91,36485,11.56,73898.0,-3.37,-21.73,-18.01,0,*54
1507856455.2,36486,11.56,73956.8,-3.37,-22.31,-20.99,0,*58
1507856456.46,36487,11.56,73948.5,-3.37,-20.53,-18.21,0,*57
1507856457.67,36488,11.56,73962.0,-3.39,-19.75,-15.95,0,*5A
1507856458.93,36489,11.56,73924.0,-3.37,-19.07,-15.81,0,*55
1507856460.18,36490,11.56,73906.5,-3.33,-19.03,-15.29,0,*5F
1507856461.41,36491,11.56,73904.8,-3.33,-19.03,-16.03,0,*55
1507856462.65,36492,11.56,73894.8,-3.33,-19.71,-15.95,0,*5F
1507856463.94,36493,11.56,73884.5,-3.33,-19.85,-15.89,0,*58
1507856465.18,36494,11.56,73884.8,-3.33,-22.67,-20.93,0,*56
1507856466.46,36495,11.56,73884.0,-3.33,-20.15,-16.31,0,*5D
1507856467.71,36496,11.56,73886.8,-3.29,-20.39,-16.31,0,*5B
1507856468.95,36497,11.56,73878.8,-3.29,-19.91,-16.59,0,*5C
1507856470.18,36498,11.56,73842.0,-3.29,-22.27,-18.69,0,*5B
1507856471.44,36499,11.56,73840.3,-3.29,-21.39,-17.97,0,*58
1507856472.68,36500,11.56,73852.3,-3.33,-26.61,-27.07,0,*52
1507856473.91,36501,11.56,73854.3,-3.33,-27.03,-28.37,0,*5A
1507856475.18,36502,11.56,73868.8,-3.35,-21.03,-16.69,0,*5F
1507856476.44,36503,11.56,73908.8,-3.35,-21.33,-17.21,0,*50
1507856477.71,36504,11.56,73910.5,-3.35,-21.67,-19.57,0,*59
1507856478.97,36505,11.56,73896.5,-3.37,-20.69,-16.69,0,*57
1507856480.2,36506,11.56,73888.3,-3.37,-21.39,-17.31,0,*5C
1507856481.43,36507,11.56,73878.3,-3.39,-21.73,-17.45,0,*5E
1507856482.7,36508,11.56,73872.5,-3.39,-22.17,-18.35,0,*58
1507856483.95,36509,11.56,73880.3,-3.43,-20.69,-17.45,0,*57
1507856485.18,36510,11.56,73918.0,-3.45,-21.83,-19.17,0,*55
1507856486.43,36511,11.56,73910.3,-3.43,-21.83,-17.31,0,*58
1507856487.63,36512,11.56,73888.5,-3.45,-25.35,-25.91,0,*5F
1507856488.88,36513,11.56,73896.0,-3.45,-28.59,-29.13,0,*5F
1507856490.13,36514,11.56,73896.8,-3.47,-28.25,-29.61,0,*54
1507856491.34,36515,11.56,73904.5,-3.49,-28.31,-29.67,0,*58
1507856492.62,36516,11.56,73884.3,-3.47,-28.43,-29.73,0,*55
1507856493.85,36517,11.56,73868.0,-3.47,-28.37,-29.61,0,*54
1507856495.09,36518,11.56,73872.5,-3.47,-28.75,-30.11,0,*52
1507856496.37,36519,11.56,73860.8,-3.47,-28.91,-30.39,0,*53
1507856497.64,36520,11.56,73862.0,-3.49,-29.01,-30.17,0,*53
1507856498.89,36521,11.56,73884.8,-3.51,-27.83,-28.97,0,*5E
1507856500.18,36522,11.56,73894.0,-3.51,-28.25,-29.51,0,*55
1507856501.42,36523,11.56,73904.8,-3.49,-21.53,-16.97,0,*53
1507856502.68,36524,11.56,73914.8,-3.53,-21.57,-17.03,0,*57
1507856503.89,36525,11.56,73914.0,-3.53,-21.77,-17.31,0,*55
1507856505.13,36526,11.56,73926.3,-3.53,-21.67,-17.31,0,*57
1507856506.34,36527,11.56,73922.0,-3.53,-21.77,-17.49,0,*58
1507856507.62,36528,11.56,73924.3,-3.55,-21.97,-17.63,0,*57
1507856508.82,36529,11.56,73924.0,-3.57,-22.03,-17.69,0,*50
1507856510.1,36530,11.56,73908.0,-3.55,-21.97,-17.63,0,*5E
1507856511.36,36531,11.56,73902.3,-3.57,-21.97,-17.63,0,*5D
1507856512.6,36532,11.56,73912.0,-3.57,-21.87,-17.69,0,*55
1507856513.86,36533,11.56,73918.8,-3.59,-21.83,-17.49,0,*5C
1507856515.12,36534,11.56,73924.8,-3.59,-21.87,-17.69,0,*5D
1507856516.36,36535,11.56,73922.8,-3.61,-23.79,-21.53,0,*58
1507856517.59,36536,11.56,73910.8,-3.61,-21.73,-17.93,0,*5A
1507856518.86,36537,11.56,73922.8,-3.59,-21.67,-17.69,0,*50
1507856520.12,36538,11.56,73930.3,-3.61,-23.99,-23.85,0,*52
1507856521.33,36539,11.56,73936.0,-3.65,-21.47,-18.41,0,*56
1507856522.56,36540,11.56,73950.8,-3.65,-20.09,-16.17,0,*5E
1507856523.81,36541,11.56,73940.0,-3.65,-19.61,-15.71,0,*58
1507856525.05,36542,11.56,73898.8,-3.61,-19.99,-16.23,0,*5C
1507856526.27,36543,11.56,73900.3,-3.59,-25.35,-24.93,0,*55
1507856527.52,36544,11.56,73874.3,-3.57,-25.75,-27.03,0,*52
1507856528.75,36545,11.56,73870.3,-3.55,-26.87,-28.31,0,*51
1507856530.01,36546,11.56,73870.3,-3.55,-20.63,-17.07,0,*57
1507856531.27,36547,11.56,73866.5,-3.55,-20.53,-16.75,0,*51
1507856532.5,36548,11.56,73830.0,-3.55,-20.73,-16.79,0,*50
1507856533.75,36549,11.56,73858.8,-3.55,-23.39,-22.73,0,*51
1507856535.0,36550,11.56,73868.3,-3.55,-27.45,-29.07,0,*5E
1507856536.25,36551,11.56,73888.0,-3.55,-27.77,-29.01,0,*58
1507856537.48,36552,11.56,73912.8,-3.55,-20.69,-16.93,0,*54
1507856538.71,36553,11.56,73924.8,-3.55,-20.73,-16.59,0,*58
1507856539.95,36554,11.56,73926.5,-3.55,-20.69,-16.59,0,*54
1507856541.16,36555,11.56,73936.5,-3.57,-20.89,-16.83,0,*5E
1507856542.4,36556,11.56,73936.3,-3.57,-25.87,-25.03,0,*5E
1507856543.63,36557,11.56,73918.0,-3.57,-21.83,-18.17,0,*54
1507856544.87,36558,11.56,73922.8,-3.57,-21.67,-17.69,0,*57
1507856546.11,36559,11.56,73900.8,-3.57,-21.47,-21.03,0,*5D
1507856547.35,36560,11.56,73890.5,-3.55,-19.91,-16.59,0,*5E
1507856548.6,36561,11.56,73884.0,-3.53,-20.35,-16.31,0,*53
1507856549.82,36562,11.56,73888.5,-3.53,-27.29,-28.85,0,*58
1507856551.09,36563,11.56,73890.0,-3.51,-28.43,-29.13,0,*56
1507856552.34,36564,11.56,73886.5,-3.51,-28.75,-29.79,0,*58
1507856553.58,36565,11.56,73894.8,-3.51,-28.31,-29.45,0,*56
1507856554.84,36566,11.56,73890.3,-3.51,-28.43,-29.45,0,*50
1507856556.07,36567,11.56,73886.0,-3.51,-24.57,-22.87,0,*5D
1507856557.34,36568,11.56,73882.5,-3.51,-20.99,-16.75,0,*5E
1507856558.6,36569,11.56,73890.8,-3.53,-21.33,-17.79,0,*51
1507856559.88,36570,11.56,73882.3,-3.51,-26.93,-28.43,0,*53
1507856561.12,36571,11.56,73874.5,-3.53,-25.81,-25.61,0,*5D
1507856562.36,36572,11.56,73870.0,-3.53,-24.61,-21.67,0,*53
1507856563.59,36573,11.56,73912.8,-3.53,-22.73,-19.03,0,*5E
1507856564.8,36574,11.56,73914.0,-3.53,-22.57,-18.65,0,*5E
1507856566.07,36575,11.56,73922.8,-3.55,-25.29,-24.15,0,*5F
1507856567.31,36576,11.5,73930.8,-3.53,-21.43,-17.21,0,*55
1507856568.57,36577,11.56,73910.8,-3.55,-28.53,-29.35,0,*52
1507856569.82,36578,11.56,73892.5,-3.55,-27.19,-28.85,0,*56
1507856571.07,36579,11.56,73906.0,-3.55,-28.53,-29.17,0,*5C
1507856572.31,36580,11.56,73912.8,-3.53,-29.01,-30.23,0,*55
1507856573.55,36581,11.56,73922.0,-3.53,-29.17,-30.45,0,*53
1507856574.81,36582,11.56,73924.3,-3.53,-29.17,-30.39,0,*5B
1507856576.05,36583,11.56,73930.3,-3.57,-29.23,-30.51,0,*57
1507856577.29,36584,11.56,73932.0,-3.53,-24.83,-24.47,0,*51
1507856578.53,36585,11.56,73928.0,-3.57,-21.97,-17.83,0,*5C
1507856579.78,36586,11.56,73936.8,-3.55,-22.73,-19.91,0,*59
1507856581.04,36587,11.56,73930.5,-3.57,-23.29,-19.85,0,*51
1507856582.28,36588,11.56,73928.8,-3.57,-21.97,-17.87,0,*55
1507856583.54,36589,11.56,73910.8,-3.55,-24.51,-23.85,0,*5C
1507856584.78,36590,11.56,73902.8,-3.53,-21.43,-17.97,0,*50
1507856586.04,36591,11.56,73898.8,-3.55,-19.91,-15.89,0,*5E
1507856587.27,36592,11.56,73896.5,-3.55,-22.93,-20.09,0,*59
1507856588.53,36593,11.56,73894.3,-3.51,-22.47,-18.83,0,*5C
1507856589.79,36594,11.56,73894.8,-3.51,-20.69,-17.79,0,*5F
1507856591.01,36595,11.56,73880.0,-3.51,-21.09,-17.31,0,*55
1507856592.22,36596,11.56,73872.8,-3.49,-19.75,-15.95,0,*53
1507856593.47,36597,11.56,73878.8,-3.47,-19.85,-15.95,0,*53
1507856594.72,36598,11.56,73868.5,-3.47,-22.03,-17.11,0,*54
1507856595.98,36599,11.56,73892.3,-3.47,-26.77,-27.89,0,*50
1507856597.23,36600,11.56,73906.8,-3.47,-20.29,-16.31,0,*5F
1507856598.45,36601,11.56,73832.8,-3.47,-20.93,-16.37,0,*59
1507856599.68,36602,11.56,73822.5,-3.49,-26.61,-27.61,0,*5E
1507856600.92,36603,11.56,73834.5,-3.47,-24.05,-20.73,0,*55
1507856602.16,36604,11.56,73860.5,-3.45,-21.53,-19.95,0,*54
1507856603.4,36605,11.56,73872.5,-3.45,-20.63,-17.07,0,*52
1507856604.62,36606,11.56,73894.0,-3.45,-21.33,-19.99,0,*5C
1507856605.89,36607,11.56,73902.3,-3.43,-27.19,-28.79,0,*59
1507856607.12,36608,11.56,73904.3,-3.43,-23.59,-22.11,0,*52
1507856608.33,36609,11.56,73906.8,-3.45,-22.63,-20.59,0,*53
1507856609.57,36610,11.56,73910.5,-3.45,-27.07,-28.59,0,*54
1507856610.83,36611,11.56,73914.3,-3.43,-24.51,-23.03,0,*57
1507856612.09,36612,11.56,73930.0,-3.43,-23.19,-20.09,0,*56
1507856613.32,36613,11.56,73940.5,-3.39,-21.73,-17.79,0,*57
1507856614.58,36614,11.56,73938.0,-3.43,-21.77,-17.79,0,*59
1507856615.8,36615,11.56,73918.3,-3.45,-24.35,-24.15,0,*57
1507856617.04,36616,11.56,73924.5,-3.45,-28.85,-29.89,0,*5B
1507856618.28,36617,11.5,73930.0,-3.45,-28.91,-30.27,0,*53
1507856619.51,36618,11.56,73930.3,-3.45,-28.59,-30.27,0,*58
1507856620.72,36619,11.56,73928.8,-3.45,-28.85,-30.45,0,*5C
1507856621.97,36620,11.56,73926.8,-3.47,-28.05,-29.57,0,*57
1507856623.2,36621,11.56,73912.0,-3.49,-28.47,-30.23,0,*55
1507856624.43,36622,11.56,73912.0,-3.49,-28.59,-29.79,0,*5E
1507856625.69,36623,11.56,73936.0,-3.49,-28.59,-30.01,0,*58
1507856626.96,36624,11.56,73946.5,-3.49,-28.75,-30.17,0,*56
1507856628.23,36625,11.56,73960.0,-3.51,-25.29,-23.95,0,*52
1507856629.48,36626,11.56,73970.0,-3.51,-25.09,-23.29,0,*54
1507856630.7,36627,11.56,73964.8,-3.53,-22.63,-20.39,0,*5E
1507856631.99,36628,11.56,73950.0,-3.51,-24.83,-26.13,0,*55
1507856633.24,36629,11.56,73896.0,-3.47,-24.11,-25.19,0,*51
1507856634.47,36630,11.56,73882.5,-3.47,-23.43,-21.47,0,*56
1507856635.73,36631,11.56,73888.3,-3.45,-22.47,-19.31,0,*5A
1507856636.97,36632,11.56,73888.3,-3.45,-21.97,-18.59,0,*58
1507856638.26,36633,11.56,73890.5,-3.47,-21.97,-18.31,0,*55
1507856639.51,36634,11.56,73886.3,-3.47,-21.53,-17.73,0,*53
1507856640.74,36635,11.56,73892.0,-3.47,-22.27,-18.17,0,*5F
1507856641.98,36636,11.56,73896.0,-3.49,-23.49,-20.59,0,*5A
1507856643.18,36637,11.56,73882.5,-3.49,-26.07,-26.45,0,*5F
1507856644.42,36638,11.56,73866.8,-3.47,-23.75,-21.47,0,*5B
1507856645.68,36639,11.56,73878.0,-3.49,-21.57,-18.31,0,*5D
1507856646.93,36640,11.56,73898.3,-3.47,-23.65,-19.99,0,*5D
1507856648.18,36641,11.56,73910.5,-3.49,-21.87,-18.59,0,*51
1507856649.41,36642,11.56,73886.0,-3.49,-23.69,-20.69,0,*58
1507856650.64,36643,11.56,73880.5,-3.47,-22.11,-18.65,0,*5E
1507856651.88,36644,11.56,73874.5,-3.49,-23.43,-21.87,0,*57
1507856653.16,36645,11.56,73866.0,-3.47,-21.87,-17.97,0,*56
1507856654.42,36646,11.56,73910.3,-3.47,-21.87,-18.11,0,*54
1507856655.66,36647,11.56,73928.3,-3.49,-26.97,-27.77,0,*51
1507856656.89,36648,11.56,73910.8,-3.47,-26.87,-27.89,0,*50
1507856658.11,36649,11.56,73916.8,-3.45,-20.93,-17.25,0,*55
1507856659.31,36650,11.56,73922.3,-3.45,-21.17,-17.49,0,*5A
1507856660.57,36651,11.56,73894.5,-3.43,-21.27,-17.49,0,*5E
1507856661.8,36652,11.56,73874.3,-3.45,-21.73,-18.01,0,*59
1507856663.03,36653,11.56,73866.5,-3.45,-21.97,-19.51,0,*56
1507856664.31,36654,11.56,73858.3,-3.47,-28.59,-29.89,0,*5E
1507856665.54,36655,11.56,73860.3,-3.45,-28.25,-29.79,0,*59
1507856666.79,36656,11.56,73862.3,-3.47,-28.91,-30.27,0,*54
1507856668.02,36657,11.56,73874.3,-3.47,-28.97,-30.45,0,*57
1507856669.26,36658,11.56,73876.0,-3.49,-22.53,-19.23,0,*5F
1507856670.52,36659,11.56,73878.8,-3.47,-22.17,-17.87,0,*50
1507856671.81,36660,11.56,73876.5,-3.51,-21.87,-17.45,0,*59
1507856673.04,36661,11.56,73874.3,-3.51,-22.03,-17.87,0,*59
1507856674.3,36662,11.5,73874.5,-3.51,-22.21,-18.17,0,*5C
1507856675.53,36663,11.56,73876.8,-3.51,-22.07,-17.87,0,*5F
1507856676.77,36664,11.56,73876.3,-3.53,-22.21,-18.07,0,*59
1507856678.03,36665,11.56,73862.8,-3.53,-21.97,-17.63,0,*5B
1507856679.27,36666,11.5,73856.3,-3.53,-21.97,-17.83,0,*56
1507856680.54,36667,11.56,73904.3,-3.55,-21.97,-17.79,0,*54
1507856681.8,36668,11.56,73894.5,-3.55,-25.29,-25.49,0,*58
1507856683.04,36669,11.56,73878.5,-3.57,-22.41,-18.35,0,*57
1507856684.27,36670,11.56,73888.8,-3.57,-22.03,-18.01,0,*5E
1507856685.51,36671,11.56,73892.5,-3.57,-22.27,-18.31,0,*5A
1507856686.77,36672,11.56,73892.3,-3.55,-24.05,-21.03,0,*56
1507856688.03,36673,11.56,73902.0,-3.57,-22.17,-18.59,0,*55
1507856689.26,36674,11.56,73896.0,-3.57,-22.41,-18.55,0,*5D
1507856690.5,36675,11.56,73876.8,-3.57,-22.47,-18.69,0,*55
1507856691.73,36676,11.56,73892.0,-3.57,-22.31,-19.03,0,*5A
1507856693.02,36677,11.56,73892.5,-3.59,-21.97,-17.97,0,*59
1507856694.28,36678,11.56,73892.3,-3.59,-21.83,-17.35,0,*5B
1507856695.54,36679,11.56,73898.0,-3.59,-26.93,-26.65,0,*5B
1507856696.78,36680,11.56,73908.8,-3.61,-28.47,-29.83,0,*56
1507856698.04,36681,11.56,73910.8,-3.59,-28.91,-30.27,0,*51
1507856699.3,36682,11.56,73890.8,-3.59,-22.11,-17.97,0,*5E
1507856700.57,36683,11.56,73884.3,-3.61,-21.53,-17.03,0,*5C
1507856701.83,36684,11.56,73896.8,-3.61,-21.67,-17.25,0,*58
1507856703.09,36685,11.56,73896.3,-3.59,-21.73,-17.25,0,*57
1507856704.3,36686,11.56,73904.0,-3.61,-21.73,-17.31,0,*5A
1507856705.51,36687,11.56,73898.5,-3.61,-21.73,-17.31,0,*5B
1507856706.74,36688,11.56,73892.0,-3.61,-21.39,-17.03,0,*5B
1507856708.0,36689,11.56,73934.0,-3.61,-21.57,-17.25,0,*56
1507856709.26,36690,11.56,73926.5,-3.65,-21.83,-17.45,0,*55
1507856710.5,36691,11.5,73910.0,-3.61,-21.77,-17.45,0,*5B
1507856711.74,36692,11.56,73912.8,-3.65,-21.93,-17.63,0,*52
1507856712.98,36693,11.56,73912.0,-3.65,-21.73,-17.21,0,*5B
1507856714.28,36694,11.56,73942.5,-3.67,-23.53,-17.07,0,*5A
1507856715.57,36695,11.56,73938.3,-3.67,-21.27,-16.69,0,*53
1507856716.78,36696,11.56,73938.0,-3.65,-19.71,-15.95,0,*5A
1507856718.02,36697,11.56,73914.5,-3.65,-20.19,-15.99,0,*53
1507856719.26,36698,11.56,73864.8,-3.61,-24.57,-24.71,0,*52
1507856720.52,36699,11.56,73892.0,-3.61,-24.15,-25.55,0,*52
1507856721.73,36700,11.56,73888.0,-3.61,-25.23,-26.45,0,*55
1507856722.96,36701,11.56,73884.0,-3.57,-24.05,-24.41,0,*52
1507856724.2,36702,11.56,73888.3,-3.53,-23.49,-25.13,0,*5C
1507856725.47,36703,11.56,73910.8,-3.51,-24.83,-26.07,0,*58
1507856726.74,36704,11.5,73898.0,-3.51,-24.25,-25.09,0,*5E
1507856727.97,36705,11.56,73906.5,-3.47,-23.13,-19.71,0,*5A
1507856729.21,36706,11.5,73898.3,-3.47,-25.35,-26.71,0,*57
1507856730.44,36707,11.5,73896.0,-3.47,-26.07,-27.93,0,*59
1507856731.67,36708,11.56,73910.8,-3.47,-24.57,-25.19,0,*51
1507856732.89,36709,11.56,73882.8,-3.47,-23.09,-21.73,0,*54
1507856734.13,36710,11.56,73882.8,-3.43,-21.93,-18.21,0,*54
1507856735.38,36711,11.56,73870.5,-3.45,-21.97,-18.31,0,*56
1507856736.61,36712,11.56,73864.5,-3.47,-26.87,-27.51,0,*5B
1507856737.83,36713,11.56,73866.0,-3.47,-21.09,-16.79,0,*53
1507856739.11,36714,11.56,73870.3,-3.47,-21.23,-17.11,0,*53
1507856740.37,36715,11.56,73870.0,-3.47,-21.47,-17.21,0,*53
1507856741.62,36716,11.56,73882.0,-3.47,-22.47,-18.79,0,*51
1507856742.84,36717,11.56,73880.8,-3.49,-22.03,-17.93,0,*55
1507856744.04,36718,11.56,73898.3,-3.49,-21.39,-17.31,0,*58
1507856745.28,36719,11.56,73914.5,-3.49,-21.73,-17.59,0,*59
1507856746.54,36720,11.56,73920.5,-3.49,-21.23,-17.11,0,*5A
1507856747.83,36721,11.56,73910.0,-3.51,-22.73,-20.19,0,*58
1507856749.08,36722,11.56,73950.0,-3.51,-21.43,-17.11,0,*57
1507856750.32,36723,11.56,73902.8,-3.53,-21.83,-18.21,0,*54
1507856751.56,36724,11.56,73870.5,-3.53,-21.77,-17.97,0,*5A
1507856752.82,36725,11.56,73854.5,-3.51,-21.77,-17.59,0,*5B
1507856754.07,36726,11.56,73872.8,-3.51,-28.31,-29.29,0,*59
1507856755.34,36727,11.56,73910.3,-3.53,-21.57,-17.97,0,*5B
1507856756.56,36728,11.56,73898.0,-3.53,-24.51,-20.63,0,*58
1507856757.76,36729,11.56,73878.0,-3.53,-27.89,-29.23,0,*52
1507856759.02,36730,11.56,73864.5,-3.53,-26.29,-26.13,0,*5D
1507856760.23,36731,11.56,73876.5,-3.49,-22.67,-19.99,0,*57
1507856761.47,36732,11.56,73910.8,-3.53,-23.03,-20.25,0,*51
1507856762.71,36733,11.56,73918.0,-3.51,-21.73,-17.87,0,*5B
1507856763.92,36734,11.56,73924.3,-3.53,-22.07,-18.07,0,*59
1507856765.16,36735,11.56,73930.5,-3.53,-22.57,-21.03,0,*53
1507856766.42,36736,11.5,73930.5,-3.53,-22.73,-20.19,0,*5C
1507856767.67,36737,11.56,73930.3,-3.53,-27.83,-29.01,0,*57
1507856768.96,36738,11.56,73908.0,-3.51,-20.79,-16.65,0,*56
1507856770.2,36739,11.56,73916.5,-3.51,-20.63,-16.75,0,*5D
1507856771.48,36740,11.56,73920.8,-3.51,-23.85,-21.87,0,*51
1507856772.74,36741,11.56,73860.8,-3.51,-23.99,-25.23,0,*57
1507856773.98,36742,11.56,73876.3,-3.51,-22.87,-19.13,0,*56
1507856775.19,36743,11.56,73886.0,-3.53,-22.53,-18.69,0,*50
1507856776.45,36744,11.56,73886.0,-3.51,-21.77,-19.27,0,*5B
1507856777.69,36745,11.56,73876.5,-3.51,-20.59,-16.97,0,*53
1507856778.92,36746,11.56,73880.0,-3.51,-22.03,-21.09,0,*5E
1507856780.15,36747,11.56,73892.0,-3.49,-20.93,-17.17,0,*57
1507856781.38,36748,11.56,73900.5,-3.49,-22.03,-19.61,0,*5C
1507856782.6,36749,11.56,73904.0,-3.47,-20.29,-16.37,0,*55
1507856783.87,36750,11.56,73900.3,-3.47,-26.71,-28.05,0,*5A
1507856785.13,36751,11.56,73916.3,-3.47,-20.59,-16.65,0,*5C
1507856786.38,36752,11.56,73902.8,-3.49,-21.27,-19.23,0,*54
1507856787.63,36753,11.56,73904.5,-3.47,-20.73,-17.25,0,*53
1507856788.91,36754,11.5,73900.3,-3.47,-23.23,-17.97,0,*5B
1507856790.16,36755,11.56,73904.0,-3.43,-20.35,-16.59,0,*59
1507856791.39,36756,11.56,73900.8,-3.45,-21.39,-17.97,0,*52
1507856792.65,36757,11.56,73896.8,-3.47,-21.09,-17.11,0,*5C
1507856793.9,36758,11.56,73904.3,-3.47,-22.53,-19.23,0,*50
1507856795.15,36759,11.56,73890.0,-3.47,-24.35,-23.29,0,*54
1507856796.37,36760,11.56,73890.3,-3.47,-21.09,-16.93,0,*53
1507856797.59,36761,11.56,73888.8,-3.47,-21.09,-16.97,0,*56
1507856798.83,36762,11.56,73890.0,-3.49,-20.83,-16.97,0,*58
1507856800.05,36763,11.5,73876.5,-3.47,-20.63,-16.93,0,*5D
1507856801.31,36764,11.5,73864.8,-3.47,-20.89,-16.69,0,*5B
1507856802.53,36765,11.56,73862.8,-3.47,-20.25,-16.93,0,*59
1507856803.76,36766,11.56,73860.0,-3.47,-20.59,-16.79,0,*55
1507856805.01,36767,11.56,73872.8,-3.47,-20.09,-17.11,0,*5E
1507856806.26,36768,11.56,73874.3,-3.47,-20.39,-16.65,0,*50
1507856807.47,36769,11.5,73884.0,-3.45,-20.93,-16.83,0,*5B
1507856808.67,36770,11.5,73886.3,-3.45,-20.93,-16.97,0,*56
1507856809.91,36771,11.5,73898.5,-3.45,-20.43,-17.21,0,*56
1507856811.14,36772,11.5,73894.3,-3.47,-20.43,-17.35,0,*52
1507856812.35,36773,11.5,73892.3,-3.45,-20.59,-16.93,0,*57
1507856813.58,36774,11.56,73896.3,-3.47,-20.39,-16.83,0,*55
1507856814.78,36775,11.56,73888.8,-3.49,-20.29,-16.79,0,*5E
1507856815.98,36776,11.56,73900.5,-3.45,-20.09,-16.97,0,*53
1507856817.21,36777,11.5,73906.8,-3.45,-20.39,-17.11,0,*5E
1507856818.44,36778,11.56,73908.0,-3.45,-20.79,-17.35,0,*53
1507856819.69,36779,11.56,73900.5,-3.47,-20.73,-17.41,0,*59
1507856820.94,36780,11.5,73890.3,-3.47,-21.03,-17.73,0,*58
1507856822.21,36781,11.56,73890.8,-3.49,-21.53,-17.59,0,*5A
1507856823.5,36782,11.56,73876.8,-3.51,-24.83,-23.19,0,*5B
1507856824.76,36783,11.56,73878.8,-3.51,-26.23,-28.25,0,*56
1507856826.02,36784,11.56,73900.3,-3.51,-21.53,-18.17,0,*53
1507856827.3,36785,11.56,73876.5,-3.51,-21.57,-19.61,0,*56
1507856828.59,36786,11.56,73902.3,-3.51,-21.27,-17.17,0,*5D
1507856829.85,36787,11.5,73912.8,-3.51,-21.77,-18.31,0,*52
1507856831.11,36788,11.56,73888.3,-3.51,-21.63,-18.01,0,*5B
1507856832.37,36789,11.5,73888.0,-3.51,-22.57,-17.45,0,*51
1507856833.61,36790,11.5,73890.3,-3.53,-23.85,-19.17,0,*5C
1507856834.89,36791,11.5,73884.8,-3.51,-24.83,-24.67,0,*57
1507856836.13,36792,11.56,73872.5,-3.53,-26.81,-28.97,0,*55
1507856837.36,36793,11.56,73888.3,-3.53,-27.03,-28.47,0,*52
1507856838.6,36794,11.5,73874.0,-3.51,-21.93,-19.99,0,*59
1507856839.86,36795,11.5,73860.5,-3.51,-21.73,-17.79,0,*56
1507856841.12,36796,11.5,73870.5,-3.51,-25.13,-25.29,0,*53
1507856842.35,36797,11.5,73898.5,-3.51,-24.97,-23.59,0,*5E
1507856843.61,36798,11.5,73902.0,-3.51,-25.39,-27.23,0,*5D
1507856844.9,36799,11.5,73910.3,-3.51,-26.97,-27.39,0,*50
1507856846.16,36800,11.5,73906.8,-3.51,-27.29,-29.01,0,*5E
1507856847.42,36801,11.5,73872.0,-3.51,-27.55,-28.47,0,*57
1507856848.66,36802,11.56,73870.0,-3.49,-24.77,-22.47,0,*54
1507856849.87,36803,11.56,73872.3,-3.49,-22.97,-19.37,0,*52
1507856851.12,36804,11.5,73906.8,-3.51,-23.03,-19.07,0,*53
1507856852.35,36805,11.56,73930.5,-3.51,-24.97,-23.39,0,*5C
1507856853.64,36806,11.56,73900.8,-3.51,-27.61,-27.23,0,*5A
1507856854.85,36807,11.5,73862.0,-3.53,-26.65,-26.61,0,*5B
1507856856.15,36808,11.56,73846.8,-3.51,-23.03,-19.57,0,*5A
1507856857.38,36809,11.5,73836.0,-3.53,-23.03,-19.91,0,*53
1507856858.64,36810,11.56,73846.5,-3.51,-25.65,-25.81,0,*51
1507856859.91,36811,11.56,73890.3,-3.53,-28.05,-29.51,0,*58
1507856861.17,36812,11.56,73916.8,-3.53,-21.83,-17.45,0,*54
1507856862.41,36813,11.56,73934.8,-3.53,-24.83,-20.69,0,*5A
1507856863.66,36814,11.56,73926.0,-3.53,-25.29,-24.15,0,*53
1507856864.92,36815,11.5,73904.0,-3.51,-21.93,-17.79,0,*5F
1507856866.16,36816,11.5,73896.0,-3.53,-22.93,-18.89,0,*5D
1507856867.41,36817,11.56,73898.8,-3.55,-22.07,-17.97,0,*57
1507856868.67,36818,11.56,73898.8,-3.55,-27.77,-28.21,0,*5B
1507856869.9,36819,11.56,73898.3,-3.55,-26.49,-23.75,0,*5C
1507856871.12,36820,11.5,73890.3,-3.53,-22.11,-17.83,0,*57
1507856872.4,36821,11.56,73906.8,-3.55,-21.67,-17.59,0,*55
1507856873.64,36822,11.5,73904.3,-3.57,-21.83,-17.69,0,*5D
1507856874.9,36823,11.56,73886.3,-3.57,-21.87,-17.63,0,*52
1507856876.14,36824,11.56,73860.8,-3.53,-21.47,-17.93,0,*52
1507856877.35,36825,11.5,73866.3,-3.57,-24.57,-20.73,0,*59
1507856878.58,36826,11.56,73872.5,-3.57,-26.07,-23.95,0,*56
1507856879.83,36827,11.56,73880.0,-3.55,-21.83,-19.03,0,*58
1507856881.05,36828,11.5,73876.0,-3.57,-22.03,-17.83,0,*58
1507856882.29,36829,11.56,73874.0,-3.57,-22.21,-17.83,0,*59
1507856883.52,36830,11.5,73860.5,-3.57,-22.03,-17.55,0,*5A
1507856884.79,36831,11.5,73874.0,-3.57,-21.87,-17.41,0,*51
1507856886.05,36832,11.5,73886.3,-3.57,-27.61,-29.01,0,*55
1507856887.31,36833,11.5,73896.8,-3.59,-22.97,-24.11,0,*5A
1507856888.59,36834,11.56,73880.8,-3.59,-23.53,-18.59,0,*57
1507856889.84,36835,11.5,73866.5,-3.59,-22.47,-18.25,0,*59
1507856891.06,36836,11.5,73864.3,-3.61,-22.53,-18.17,0,*55
1507856892.27,36837,11.5,73878.8,-3.61,-22.37,-17.69,0,*50
1507856893.55,36838,11.5,73884.5,-3.59,-29.13,-30.05,0,*56
1507856894.76,36839,11.5,73886.3,-3.61,-22.83,-18.49,0,*5C
1507856896.02,36840,11.56,73886.3,-3.61,-22.47,-18.01,0,*56
1507856897.25,36841,11.5,73870.0,-3.65,-22.07,-17.93,0,*53
1507856898.5,36842,11.5,73864.8,-3.67,-22.87,-18.89,0,*5E